Regional Weather Roundup
Issued by NWS Green Bay, WI

Home | Current Version | Previous Version | Text Only | Print | Product List | Glossary On
Versions: 1 2 3 4 5 6 7 8 9 10 11 12 13 14 15 16 17 18 19 20 21 22 23 24 25 26 27 28 29 30 31 32 33 34 35 36 37 38 39 40 41 42 43 44 45 46 47 48 49 50
000
ASUS43 KGRB 010010
RWRGRB

NORTH-CENTRAL AND NORTHEAST WISCONSIN REGIONAL WEATHER ROUNDUP
NATIONAL WEATHER SERVICE GREEN BAY WI
600 PM CST SAT JAN 31 2015

WIZ005-009-010>012-018-019-010100-
NORTH CENTRAL WISCONSIN

CITY           SKY/WX    TMP DP  RH WIND       PRES   REMARKS
IRONWOOD       CLOUDY    16   9  73 NE5       30.25R WCI   9
MANITOWISH WTR CLOUDY    14   8  76 NE6       30.23R WCI   5
ARBOR VITAE    CLOUDY    17   8  67 NE8       30.22R WCI   6
EAGLE RIVER    CLOUDY    15   5  66 N9        30.22R WCI   3
LAND O LAKES   FLURRIES  14   9  79 N6        30.23R WCI   5
RHINELANDER    CLOUDY    17   8  67 NE8       30.21R WCI   7
PHILLIPS       PTCLDY    14   7  73 N9        30.22R WCI   2
ANTIGO         CLOUDY    21  14  74 NE8       30.19R
TOMAHAWK       CLOUDY    19  11  71 CALM      30.21R
MERRILL        CLOUDY    23  13  67 N7        30.20R
$$

WIZ013-073-010100-
NORTHEAST WISCONSIN

CITY           SKY/WX    TMP DP  RH WIND       PRES   REMARKS
IRON MOUNTAIN  PTCLDY    16   6  65 N10       30.24R WCI   4
MARINETTE      CLOUDY    25  18  74 E14       30.24R
OCONTO         CLOUDY    26  19  75 MISG      30.24R
$$

WIZ017-030-035>037-045-010100-
CENTRAL WISCONSIN

CITY           SKY/WX    TMP DP  RH WIND       PRES   REMARKS
MEDFORD        CLOUDY    22  13  70 NE12      30.18R
WAUSAU         CLOUDY    24  16  71 NE5       30.18R
MOSINEE        CLOUDY    25  21  86 N6        30.19S
MARSHFIELD     CLOUDY    26  17  68 NE10      30.18R
WISC RAPIDS    CLOUDY    27  17  66 NE6       30.20R
STEVENS POINT  CLOUDY    25  17  72 N6        30.19R
WAUPACA        CLOUDY    30  20  65 N3        30.20S
SHAWANO        CLOUDY    29  20  68 NE8       30.22R
CLINTONVILLE   CLOUDY    28  19  69 NE6       30.21R
$$

WIZ038-039-048-051-010100-
FOX VALLEY

CITY           SKY/WX    TMP DP  RH WIND       PRES   REMARKS
NWS GREEN BAY  CLOUDY    27  19  72 NE6       30.22R
APPLETON       CLOUDY    27  18  69 VRB5      30.20S
OSHKOSH        CLOUDY    27  19  72 NE5       30.20R
FOND DU LAC    CLOUDY    27  19  72 NE9       30.20R
$$

WIZ022-050-052-010100-
EAST CENTRAL WISCONSIN

CITY           SKY/WX    TMP DP  RH WIND       PRES   REMARKS
STURGEON BAY   CLOUDY    25  18  74 NE12      30.25R
MANITOWOC      CLOUDY    27  20  75 NE6       30.22
SHEBOYGAN      CLOUDY    28  20  71 NE9       30.20R
$$

LMZ563-521-522-541>543-010100-
LAKESHORE

STATION/POSITION TIME  TEMP    WIND        PRES    VSBY  WAVE
                       AIR SEA DIR/SP/G                  HT/PER
                 (UTC) (F)     (DEG/KT/KT) (MB)    (MI)  (FT/S)
SHEBOYGAN LKSHOR 0000   28      20/ 13/ 14 1024.1R
KEWAUNEE LKSHORE 0000   27     350/  2/  4 1022.4F
NORTHPORT PIER   0000   22     360/ 17/ 21 1024.7R
SISTER BAY LKSHO 0000   22      30/ 11/ 17   N/A
STURGEON BAY CG  2300   27                 1022.6   3 1/2  1
CHAMBERS ISLAND  0000   22      10/ 17/ 20 1024.4S
MENOMINEE LKSHOR 0000   24      30/ 16     1024.7R
$$



USA.gov is the U.S. government's official web portal to all federal, state and local government web resources and services.